Year,Month,Day,Hour,Minute,Value (Times are PST for temperature in C)
2007,07,12,00,00,25.80
2007,07,12,00,01,25.80
2007,07,12,00,02,25.80
2007,07,12,00,03,25.80
2007,07,12,00,04,25.80
2007,07,12,00,05,25.80
2007,07,12,00,06,25.80
2007,07,12,00,07,25.80
2007,07,12,00,08,25.80
2007,07,12,00,09,25.80
2007,07,12,00,10,25.80
2007,07,12,00,11,25.80
2007,07,12,00,12,25.80
2007,07,12,00,13,25.80
2007,07,12,00,14,25.90
2007,07,12,00,15,25.90
2007,07,12,00,16,25.90
2007,07,12,00,17,25.90
2007,07,12,00,18,26.00
2007,07,12,00,19,26.00
2007,07,12,00,20,26.00
2007,07,12,00,21,26.00
2007,07,12,00,22,26.00
2007,07,12,00,23,26.00
2007,07,12,00,24,26.00
2007,07,12,00,25,26.00
2007,07,12,00,26,25.90
2007,07,12,00,27,25.90
2007,07,12,00,28,25.90
2007,07,12,00,29,25.90
2007,07,12,00,30,25.90
2007,07,12,00,31,25.90
2007,07,12,00,32,25.90
2007,07,12,00,33,25.90
2007,07,12,00,34,25.90
2007,07,12,00,35,25.80
2007,07,12,00,36,25.80
2007,07,12,00,37,25.80
2007,07,12,00,38,25.80
2007,07,12,00,39,25.80
2007,07,12,00,40,25.80
2007,07,12,00,41,25.80
2007,07,12,00,42,25.80
2007,07,12,00,43,25.80
2007,07,12,00,44,25.80
2007,07,12,00,45,25.80
2007,07,12,00,46,25.80
2007,07,12,00,47,25.80
2007,07,12,00,48,25.80
2007,07,12,00,49,25.80
2007,07,12,00,50,25.80
2007,07,12,00,51,25.80
2007,07,12,00,52,25.80
2007,07,12,00,53,25.80
2007,07,12,00,54,25.80
2007,07,12,00,55,25.70
2007,07,12,00,56,25.70
2007,07,12,00,57,25.70
2007,07,12,00,58,25.60
2007,07,12,00,59,25.60
2007,07,12,01,00,25.50
2007,07,12,01,01,25.50
2007,07,12,01,02,25.40
2007,07,12,01,03,25.40
2007,07,12,01,04,25.40
2007,07,12,01,05,25.30
2007,07,12,01,06,25.30
2007,07,12,01,07,25.20
2007,07,12,01,08,25.20
2007,07,12,01,09,25.10
2007,07,12,01,10,25.10
2007,07,12,01,11,25.10
2007,07,12,01,12,25.00
2007,07,12,01,13,25.00
2007,07,12,01,14,25.00
2007,07,12,01,15,24.90
2007,07,12,01,16,24.90
2007,07,12,01,17,24.90
2007,07,12,01,18,24.90
2007,07,12,01,19,24.90
2007,07,12,01,20,24.90
2007,07,12,01,21,24.90
2007,07,12,01,22,24.90
2007,07,12,01,23,24.90
2007,07,12,01,24,24.90
2007,07,12,01,25,24.90
2007,07,12,01,26,24.90
2007,07,12,01,27,24.90
2007,07,12,01,28,24.90
2007,07,12,01,29,24.90
2007,07,12,01,30,24.90
2007,07,12,01,31,24.90
2007,07,12,01,32,24.90
2007,07,12,01,33,24.90
2007,07,12,01,34,24.90
2007,07,12,01,35,24.90
2007,07,12,01,36,24.80
2007,07,12,01,37,24.80
2007,07,12,01,38,24.80
2007,07,12,01,39,24.80
2007,07,12,01,40,24.80
2007,07,12,01,41,24.80
2007,07,12,01,42,24.80
2007,07,12,01,43,24.80
2007,07,12,01,44,24.80
2007,07,12,01,45,24.80
2007,07,12,01,46,24.80
2007,07,12,01,47,24.90
2007,07,12,01,48,24.90
2007,07,12,01,49,24.90
2007,07,12,01,50,24.90
2007,07,12,01,51,24.90
2007,07,12,01,52,24.90
2007,07,12,01,53,24.90
2007,07,12,01,54,24.90
2007,07,12,01,55,24.90
2007,07,12,01,56,24.90
2007,07,12,01,57,24.80
2007,07,12,01,58,24.80
2007,07,12,01,59,24.80
2007,07,12,02,00,24.70
2007,07,12,02,01,24.70
2007,07,12,02,02,24.70
2007,07,12,02,03,24.70
2007,07,12,02,04,24.70
2007,07,12,02,05,24.60
2007,07,12,02,06,24.60
2007,07,12,02,07,24.60
2007,07,12,02,08,24.60
2007,07,12,02,09,24.60
2007,07,12,02,10,24.50
2007,07,12,02,11,24.50
2007,07,12,02,12,24.50
2007,07,12,02,13,24.50
2007,07,12,02,14,24.40
2007,07,12,02,15,24.40
2007,07,12,02,16,24.40
2007,07,12,02,17,24.40
2007,07,12,02,18,24.40
2007,07,12,02,19,24.30
2007,07,12,02,20,24.30
2007,07,12,02,21,24.30
2007,07,12,02,22,24.30
2007,07,12,02,23,24.20
2007,07,12,02,24,24.20
2007,07,12,02,25,24.20
2007,07,12,02,26,24.10
2007,07,12,02,27,24.10
2007,07,12,02,28,24.10
2007,07,12,02,29,24.00
2007,07,12,02,30,23.90
2007,07,12,02,31,23.90
2007,07,12,02,32,23.80
2007,07,12,02,33,23.70
2007,07,12,02,34,23.70
2007,07,12,02,35,23.70
2007,07,12,02,36,23.70
2007,07,12,02,37,23.70
2007,07,12,02,38,23.60
2007,07,12,02,39,23.60
2007,07,12,02,40,23.50
2007,07,12,02,41,23.40
2007,07,12,02,42,23.40
2007,07,12,02,43,23.30
2007,07,12,02,44,23.30
2007,07,12,02,45,23.30
2007,07,12,02,46,23.30
2007,07,12,02,47,23.20
2007,07,12,02,48,23.20
2007,07,12,02,49,23.20
2007,07,12,02,50,23.10
2007,07,12,02,51,23.10
2007,07,12,02,52,23.00
2007,07,12,02,53,22.90
2007,07,12,02,54,22.90
2007,07,12,02,55,22.90
2007,07,12,02,56,22.90
2007,07,12,02,57,22.90
2007,07,12,02,58,22.90
2007,07,12,02,59,22.90
2007,07,12,03,00,22.80
2007,07,12,03,01,22.80
2007,07,12,03,02,22.80
2007,07,12,03,03,22.80
2007,07,12,03,04,22.80
2007,07,12,03,05,22.70
2007,07,12,03,06,22.70
2007,07,12,03,07,22.70
2007,07,12,03,08,22.60
2007,07,12,03,09,22.60
2007,07,12,03,10,22.50
2007,07,12,03,11,22.50
2007,07,12,03,12,22.40
2007,07,12,03,13,22.40
2007,07,12,03,14,22.40
2007,07,12,03,15,22.30
2007,07,12,03,16,22.30
2007,07,12,03,17,22.30
2007,07,12,03,18,22.20
2007,07,12,03,19,22.20
2007,07,12,03,20,22.10
2007,07,12,03,21,22.10
2007,07,12,03,22,22.10
2007,07,12,03,23,22.00
2007,07,12,03,24,22.00
2007,07,12,03,25,21.90
2007,07,12,03,26,21.90
2007,07,12,03,27,21.80
2007,07,12,03,28,21.70
2007,07,12,03,29,21.70
2007,07,12,03,30,21.60
2007,07,12,03,31,21.60
2007,07,12,03,32,21.60
2007,07,12,03,33,21.60
2007,07,12,03,34,21.50
2007,07,12,03,35,21.40
2007,07,12,03,36,21.40
2007,07,12,03,37,21.30
2007,07,12,03,38,21.30
2007,07,12,03,39,21.20
2007,07,12,03,40,21.20
2007,07,12,03,41,21.10
2007,07,12,03,42,21.10
2007,07,12,03,43,21.00
2007,07,12,03,44,21.00
2007,07,12,03,45,21.00
2007,07,12,03,46,20.90
2007,07,12,03,47,20.90
2007,07,12,03,48,20.80
2007,07,12,03,49,20.80
2007,07,12,03,50,20.70
2007,07,12,03,51,20.70
2007,07,12,03,52,20.60
2007,07,12,03,53,20.60
2007,07,12,03,54,20.60
2007,07,12,03,55,20.50
2007,07,12,03,56,20.50
2007,07,12,03,57,20.50
2007,07,12,03,58,20.40
2007,07,12,03,59,20.40
2007,07,12,04,00,20.30
2007,07,12,04,01,20.30
2007,07,12,04,02,20.30
2007,07,12,04,03,20.20
2007,07,12,04,04,20.20
2007,07,12,04,05,20.20
2007,07,12,04,06,20.20
2007,07,12,04,07,20.10
2007,07,12,04,08,20.10
2007,07,12,04,09,20.10
2007,07,12,04,10,20.00
2007,07,12,04,11,19.90
2007,07,12,04,12,19.90
2007,07,12,04,13,19.90
2007,07,12,04,14,19.90
2007,07,12,04,15,19.90
2007,07,12,04,16,19.80
2007,07,12,04,17,19.80
2007,07,12,04,18,19.80
2007,07,12,04,19,19.70
2007,07,12,04,20,19.70
2007,07,12,04,21,19.70
2007,07,12,04,22,19.60
2007,07,12,04,23,19.60
2007,07,12,04,24,19.60
2007,07,12,04,25,19.60
2007,07,12,04,26,19.60
2007,07,12,04,27,19.50
2007,07,12,04,28,19.50
2007,07,12,04,29,19.50
2007,07,12,04,30,19.50
2007,07,12,04,31,19.40
2007,07,12,04,32,19.40
2007,07,12,04,33,19.40
2007,07,12,04,34,19.30
2007,07,12,04,35,19.30
2007,07,12,04,36,19.30
2007,07,12,04,37,19.30
2007,07,12,04,38,19.20
2007,07,12,04,39,19.20
2007,07,12,04,40,19.20
2007,07,12,04,41,19.10
2007,07,12,04,42,19.10
2007,07,12,04,43,19.10
2007,07,12,04,44,19.10
2007,07,12,04,45,19.10
2007,07,12,04,46,19.10
2007,07,12,04,47,19.10
2007,07,12,04,48,19.10
2007,07,12,04,49,19.10
2007,07,12,04,50,19.10
2007,07,12,04,51,19.10
2007,07,12,04,52,19.10
2007,07,12,04,53,19.10
2007,07,12,04,54,19.10
2007,07,12,04,55,19.10
2007,07,12,04,56,19.20
2007,07,12,04,57,19.20
2007,07,12,04,58,19.10
2007,07,12,04,59,19.10
2007,07,12,05,00,19.10
2007,07,12,05,01,19.10
2007,07,12,05,02,19.10
2007,07,12,05,03,19.10
2007,07,12,05,04,19.10
2007,07,12,05,05,19.10
2007,07,12,05,06,19.10
2007,07,12,05,07,19.00
2007,07,12,05,08,18.90
2007,07,12,05,09,18.90
2007,07,12,05,10,18.90
2007,07,12,05,11,18.90
2007,07,12,05,12,18.90
2007,07,12,05,13,18.90
2007,07,12,05,14,18.90
2007,07,12,05,15,18.90
2007,07,12,05,16,18.80
2007,07,12,05,17,18.80
2007,07,12,05,18,18.80
2007,07,12,05,19,18.80
2007,07,12,05,20,18.80
2007,07,12,05,21,18.70
2007,07,12,05,22,18.70
2007,07,12,05,23,18.70
2007,07,12,05,24,18.70
2007,07,12,05,25,18.60
2007,07,12,05,26,18.60
2007,07,12,05,27,18.60
2007,07,12,05,28,18.60
2007,07,12,05,29,18.60
2007,07,12,05,30,18.50
2007,07,12,05,31,18.50
2007,07,12,05,32,18.50
2007,07,12,05,33,18.50
2007,07,12,05,34,18.40
2007,07,12,05,35,18.40
2007,07,12,05,36,18.40
2007,07,12,05,37,18.40
2007,07,12,05,38,18.40
2007,07,12,05,39,18.40
2007,07,12,05,40,18.40
2007,07,12,05,41,18.40
2007,07,12,05,42,18.30
2007,07,12,05,43,18.30
2007,07,12,05,44,18.30
2007,07,12,05,45,18.30
2007,07,12,05,46,18.30
2007,07,12,05,47,18.30
2007,07,12,05,48,18.30
2007,07,12,05,49,18.30
2007,07,12,05,50,18.30
2007,07,12,05,51,18.30
2007,07,12,05,52,18.30
2007,07,12,05,53,18.20
2007,07,12,05,54,18.20
2007,07,12,05,55,18.20
2007,07,12,05,56,18.10
2007,07,12,05,57,18.00
2007,07,12,05,58,17.90
2007,07,12,05,59,17.90
2007,07,12,06,00,17.80
2007,07,12,06,01,17.80
2007,07,12,06,02,17.70
2007,07,12,06,03,17.60
2007,07,12,06,04,17.50
2007,07,12,06,05,17.40
2007,07,12,06,06,17.30
2007,07,12,06,07,17.30
2007,07,12,06,08,17.30
2007,07,12,06,09,17.20
2007,07,12,06,10,17.20
2007,07,12,06,11,17.10
2007,07,12,06,12,17.10
2007,07,12,06,13,17.10
2007,07,12,06,14,17.00
2007,07,12,06,15,17.00
2007,07,12,06,16,17.00
2007,07,12,06,17,17.00
2007,07,12,06,18,17.00
2007,07,12,06,19,17.00
2007,07,12,06,20,17.00
2007,07,12,06,21,16.90
2007,07,12,06,22,16.90
2007,07,12,06,23,16.90
2007,07,12,06,24,16.90
2007,07,12,06,25,16.90
2007,07,12,06,26,16.90
2007,07,12,06,27,16.90
2007,07,12,06,28,16.90
2007,07,12,06,29,16.90
2007,07,12,06,30,16.90
2007,07,12,06,31,16.90
2007,07,12,06,32,16.90
2007,07,12,06,33,16.90
2007,07,12,06,34,16.90
2007,07,12,06,35,16.90
2007,07,12,06,36,16.90
2007,07,12,06,37,16.90
2007,07,12,06,38,16.90
2007,07,12,06,39,16.90
2007,07,12,06,40,16.90
2007,07,12,06,41,16.80
2007,07,12,06,42,16.80
2007,07,12,06,43,16.80
2007,07,12,06,44,16.80
2007,07,12,06,45,16.80
2007,07,12,06,46,16.80
2007,07,12,06,47,16.90
2007,07,12,06,48,16.90
2007,07,12,06,49,16.90
2007,07,12,06,50,16.90
2007,07,12,06,51,16.90
2007,07,12,06,52,16.90
2007,07,12,06,53,16.90
2007,07,12,06,54,16.90
2007,07,12,06,55,16.90
2007,07,12,06,56,16.90
2007,07,12,06,57,16.90
2007,07,12,06,58,16.90
2007,07,12,06,59,16.90
2007,07,12,07,00,16.90
2007,07,12,07,01,16.90
2007,07,12,07,02,16.90
2007,07,12,07,03,16.90
2007,07,12,07,04,16.90
2007,07,12,07,05,16.90
2007,07,12,07,06,16.90
2007,07,12,07,07,16.90
2007,07,12,07,08,17.00
2007,07,12,07,09,17.00
2007,07,12,07,10,17.00
2007,07,12,07,11,17.00
2007,07,12,07,12,17.10
2007,07,12,07,13,17.10
2007,07,12,07,14,17.10
2007,07,12,07,15,17.10
2007,07,12,07,16,17.20
2007,07,12,07,17,17.20
2007,07,12,07,18,17.20
2007,07,12,07,19,17.20
2007,07,12,07,20,17.30
2007,07,12,07,21,17.30
2007,07,12,07,22,17.30
2007,07,12,07,23,17.30
2007,07,12,07,24,17.30
2007,07,12,07,25,17.30
2007,07,12,07,26,17.30
2007,07,12,07,27,17.30
2007,07,12,07,28,17.30
2007,07,12,07,29,17.30
2007,07,12,07,30,17.40
2007,07,12,07,31,17.40
2007,07,12,07,32,17.40
2007,07,12,07,33,17.40
2007,07,12,07,34,17.40
2007,07,12,07,35,17.50
2007,07,12,07,36,17.50
2007,07,12,07,37,17.50
2007,07,12,07,38,17.60
2007,07,12,07,39,17.70
2007,07,12,07,40,17.70
2007,07,12,07,41,17.80
2007,07,12,07,42,17.80
2007,07,12,07,43,17.90
2007,07,12,07,44,17.90
2007,07,12,07,45,17.90
2007,07,12,07,46,17.90
2007,07,12,07,47,17.90
2007,07,12,07,48,17.90
2007,07,12,07,49,18.00
2007,07,12,07,50,18.10
2007,07,12,07,51,18.10
2007,07,12,07,52,18.10
2007,07,12,07,53,18.20
2007,07,12,07,54,18.20
2007,07,12,07,55,18.20
2007,07,12,07,56,18.20
2007,07,12,07,57,18.30
2007,07,12,07,58,18.40
2007,07,12,07,59,18.40
2007,07,12,08,00,18.50
2007,07,12,08,01,18.60
2007,07,12,08,02,18.70
2007,07,12,08,03,18.70
2007,07,12,08,04,18.70
2007,07,12,08,05,18.80
2007,07,12,08,06,18.80
2007,07,12,08,07,18.90
2007,07,12,08,08,18.90
2007,07,12,08,09,18.90
2007,07,12,08,10,19.00
2007,07,12,08,11,19.10
2007,07,12,08,12,19.10
2007,07,12,08,13,19.30
2007,07,12,08,14,19.30
2007,07,12,08,15,19.40
2007,07,12,08,16,19.40
2007,07,12,08,17,19.30
2007,07,12,08,18,19.20
2007,07,12,08,19,19.10
2007,07,12,08,20,19.00
2007,07,12,08,21,18.90
2007,07,12,08,22,18.80
2007,07,12,08,23,18.70
2007,07,12,08,24,18.60
2007,07,12,08,25,18.50
2007,07,12,08,26,18.50
2007,07,12,08,27,18.40
2007,07,12,08,28,18.30
2007,07,12,08,29,18.40
2007,07,12,08,30,18.30
2007,07,12,08,31,18.30
2007,07,12,08,32,18.30
2007,07,12,08,33,18.30
2007,07,12,08,34,18.40
2007,07,12,08,35,18.40
2007,07,12,08,36,18.40
2007,07,12,08,37,18.40
2007,07,12,08,38,18.40
2007,07,12,08,39,18.40
2007,07,12,08,40,18.50
2007,07,12,08,41,18.50
2007,07,12,08,42,18.50
2007,07,12,08,43,18.50
2007,07,12,08,44,18.40
2007,07,12,08,45,18.40
2007,07,12,08,46,18.50
2007,07,12,08,47,18.50
2007,07,12,08,48,18.60
2007,07,12,08,49,18.70
2007,07,12,08,50,18.70
2007,07,12,08,51,18.80
2007,07,12,08,52,18.90
2007,07,12,08,53,19.10
2007,07,12,08,54,19.10
2007,07,12,08,55,19.20
2007,07,12,08,56,19.30
2007,07,12,08,57,19.40
2007,07,12,08,58,19.40
2007,07,12,08,59,19.50
2007,07,12,09,00,19.50
2007,07,12,09,01,19.60
2007,07,12,09,02,19.60
2007,07,12,09,03,19.50
2007,07,12,09,04,19.50
2007,07,12,09,05,19.50
2007,07,12,09,06,19.50
2007,07,12,09,07,19.50
2007,07,12,09,08,19.50
2007,07,12,09,09,19.40
2007,07,12,09,10,19.40
2007,07,12,09,11,19.40
2007,07,12,09,12,19.30
2007,07,12,09,13,19.40
2007,07,12,09,14,19.40
2007,07,12,09,15,19.40
2007,07,12,09,16,19.20
2007,07,12,09,17,19.10
2007,07,12,09,18,19.00
2007,07,12,09,19,18.90
2007,07,12,09,20,18.90
2007,07,12,09,21,18.90
2007,07,12,09,22,18.90
2007,07,12,09,23,18.90
2007,07,12,09,24,18.90
2007,07,12,09,25,18.70
2007,07,12,09,26,18.60
2007,07,12,09,27,18.40
2007,07,12,09,28,18.20
2007,07,12,09,29,18.00
2007,07,12,09,30,17.90
2007,07,12,09,31,17.90
2007,07,12,09,32,17.90
2007,07,12,09,33,17.90
2007,07,12,09,34,18.00
2007,07,12,09,35,18.10
2007,07,12,09,36,18.10
2007,07,12,09,37,18.00
2007,07,12,09,38,17.90
2007,07,12,09,39,18.10
2007,07,12,09,40,18.20
2007,07,12,09,41,18.20
2007,07,12,09,42,18.10
2007,07,12,09,43,18.10
2007,07,12,09,44,18.20
2007,07,12,09,45,18.20
2007,07,12,09,46,18.20
2007,07,12,09,47,18.20
2007,07,12,09,48,18.30
2007,07,12,09,49,18.40
2007,07,12,09,50,18.40
2007,07,12,09,51,18.40
2007,07,12,09,52,18.40
2007,07,12,09,53,18.30
2007,07,12,09,54,18.30
2007,07,12,09,55,18.30
2007,07,12,09,56,18.40
2007,07,12,09,57,18.50
2007,07,12,09,58,18.50
2007,07,12,09,59,18.50
2007,07,12,10,00,18.40
2007,07,12,10,01,18.30
2007,07,12,10,02,18.20
2007,07,12,10,03,18.20
2007,07,12,10,04,18.30
2007,07,12,10,05,18.30
2007,07,12,10,06,18.40
2007,07,12,10,07,18.40
2007,07,12,10,08,18.50
2007,07,12,10,09,18.50
2007,07,12,10,10,18.50
2007,07,12,10,11,18.60
2007,07,12,10,12,18.70
2007,07,12,10,13,18.70
2007,07,12,10,14,18.90
2007,07,12,10,15,18.90
2007,07,12,10,16,19.00
2007,07,12,10,17,19.10
2007,07,12,10,18,19.10
2007,07,12,10,19,19.10
2007,07,12,10,20,19.10
2007,07,12,10,21,19.20
2007,07,12,10,22,19.20
2007,07,12,10,23,19.20
2007,07,12,10,24,19.10
2007,07,12,10,25,19.10
2007,07,12,10,26,19.10
2007,07,12,10,27,19.10
2007,07,12,10,28,19.10
2007,07,12,10,29,19.10
2007,07,12,10,30,19.10
2007,07,12,10,31,19.10
2007,07,12,10,32,19.20
2007,07,12,10,33,19.40
2007,07,12,10,34,19.40
2007,07,12,10,35,19.40
2007,07,12,10,36,19.40
2007,07,12,10,37,19.40
2007,07,12,10,38,19.50
2007,07,12,10,39,19.60
2007,07,12,10,40,19.70
2007,07,12,10,41,19.70
2007,07,12,10,42,19.80
2007,07,12,10,43,19.80
2007,07,12,10,44,19.80
2007,07,12,10,45,19.80
2007,07,12,10,46,19.90
2007,07,12,10,47,19.90
2007,07,12,10,48,20.10
2007,07,12,10,49,20.20
2007,07,12,10,50,20.20
2007,07,12,10,51,20.20
2007,07,12,10,52,20.20
2007,07,12,10,53,20.30
2007,07,12,10,54,20.30
2007,07,12,10,55,20.20
2007,07,12,10,56,20.10
2007,07,12,10,57,20.10
2007,07,12,10,58,20.20
2007,07,12,10,59,20.20
2007,07,12,11,00,20.30
2007,07,12,11,01,20.30
2007,07,12,11,02,20.30
2007,07,12,11,03,20.20
2007,07,12,11,04,20.10
2007,07,12,11,05,19.90
2007,07,12,11,06,19.80
2007,07,12,11,07,19.70
2007,07,12,11,08,19.70
2007,07,12,11,09,19.70
2007,07,12,11,10,19.60
2007,07,12,11,11,19.60
2007,07,12,11,12,19.70
2007,07,12,11,13,19.90
2007,07,12,11,14,19.90
2007,07,12,11,15,19.90
2007,07,12,11,16,19.90
2007,07,12,11,17,19.80
2007,07,12,11,18,19.70
2007,07,12,11,19,19.80
2007,07,12,11,20,19.90
2007,07,12,11,21,19.90
2007,07,12,11,22,19.90
2007,07,12,11,23,19.90
2007,07,12,11,24,20.00
2007,07,12,11,25,20.10
2007,07,12,11,26,20.20
2007,07,12,11,27,20.20
2007,07,12,11,28,20.20
2007,07,12,11,29,20.20
2007,07,12,11,30,20.20
2007,07,12,11,31,20.30
2007,07,12,11,32,20.20
2007,07,12,11,33,20.30
2007,07,12,11,34,20.30
2007,07,12,11,35,20.30
2007,07,12,11,36,20.30
2007,07,12,11,37,20.40
2007,07,12,11,38,20.50
2007,07,12,11,39,20.70
2007,07,12,11,40,20.70
2007,07,12,11,41,20.60
2007,07,12,11,42,20.70
2007,07,12,11,43,20.70
2007,07,12,11,44,20.80
2007,07,12,11,45,21.00
2007,07,12,11,46,21.00
2007,07,12,11,47,21.00
2007,07,12,11,48,20.80
2007,07,12,11,49,20.70
2007,07,12,11,50,20.70
2007,07,12,11,51,20.80
2007,07,12,11,52,20.90
2007,07,12,11,53,20.90
2007,07,12,11,54,20.90
2007,07,12,11,55,20.90
2007,07,12,11,56,21.00
2007,07,12,11,57,21.10
2007,07,12,11,58,21.20
2007,07,12,11,59,21.20
2007,07,12,12,00,21.30
2007,07,12,12,01,21.30
2007,07,12,12,02,21.30
2007,07,12,12,03,21.20
2007,07,12,12,04,21.10
2007,07,12,12,05,21.10
2007,07,12,12,06,21.10
2007,07,12,12,07,21.20
2007,07,12,12,08,21.30
2007,07,12,12,09,21.40
2007,07,12,12,10,21.50
2007,07,12,12,11,21.50
2007,07,12,12,12,21.40
2007,07,12,12,13,21.40
2007,07,12,12,14,21.30
2007,07,12,12,15,21.30
2007,07,12,12,16,21.30
2007,07,12,12,17,21.30
2007,07,12,12,18,21.30
2007,07,12,12,19,21.40
2007,07,12,12,20,21.60
2007,07,12,12,21,21.60
2007,07,12,12,22,21.60
2007,07,12,12,23,21.60
2007,07,12,12,24,21.50
2007,07,12,12,25,21.40
2007,07,12,12,26,21.60
2007,07,12,12,27,21.40
2007,07,12,12,28,21.40
2007,07,12,12,29,21.30
2007,07,12,12,30,21.20
2007,07,12,12,31,21.10
2007,07,12,12,32,21.10
2007,07,12,12,33,21.00
2007,07,12,12,34,21.10
2007,07,12,12,35,21.10
2007,07,12,12,36,21.10
2007,07,12,12,37,21.00
2007,07,12,12,38,21.00
2007,07,12,12,39,21.00
2007,07,12,12,40,20.90
2007,07,12,12,41,21.00
2007,07,12,12,42,21.10
2007,07,12,12,43,21.30
2007,07,12,12,44,21.40
2007,07,12,12,45,21.50
2007,07,12,12,46,21.60
2007,07,12,12,47,21.60
2007,07,12,12,48,21.80
2007,07,12,12,49,22.00
2007,07,12,12,50,22.20
2007,07,12,12,51,22.30
2007,07,12,12,52,22.60
2007,07,12,12,53,22.80
2007,07,12,12,54,22.90
2007,07,12,12,55,22.90
2007,07,12,12,56,22.80
2007,07,12,12,57,22.70
2007,07,12,12,58,22.60
2007,07,12,12,59,22.50
2007,07,12,13,00,22.50
2007,07,12,13,01,22.50
2007,07,12,13,02,22.50
2007,07,12,13,03,22.50
2007,07,12,13,04,22.50
2007,07,12,13,05,22.40
2007,07,12,13,06,22.40
2007,07,12,13,07,22.40
2007,07,12,13,08,22.20
2007,07,12,13,09,22.20
2007,07,12,13,10,22.10
2007,07,12,13,11,22.10
2007,07,12,13,12,22.20
2007,07,12,13,13,22.20
2007,07,12,13,14,22.00
2007,07,12,13,15,22.00
2007,07,12,13,16,21.90
2007,07,12,13,17,21.80
2007,07,12,13,18,21.80
2007,07,12,13,19,21.80
2007,07,12,13,20,21.90
2007,07,12,13,21,22.00
2007,07,12,13,22,22.20
2007,07,12,13,23,22.30
2007,07,12,13,24,22.40
2007,07,12,13,25,22.60
2007,07,12,13,26,22.60
2007,07,12,13,27,22.60
2007,07,12,13,28,22.70
2007,07,12,13,29,22.70
2007,07,12,13,30,22.60
2007,07,12,13,31,22.50
2007,07,12,13,32,22.50
2007,07,12,13,33,22.60
2007,07,12,13,34,22.70
2007,07,12,13,35,22.70
2007,07,12,13,36,22.70
2007,07,12,13,37,22.70
2007,07,12,13,38,22.80
2007,07,12,13,39,22.80
2007,07,12,13,40,22.90
2007,07,12,13,41,22.90
2007,07,12,13,42,22.90
2007,07,12,13,43,22.90
2007,07,12,13,44,23.10
2007,07,12,13,45,23.20
2007,07,12,13,46,23.20
2007,07,12,13,47,23.20
2007,07,12,13,48,23.20
2007,07,12,13,49,23.20
2007,07,12,13,50,23.20
2007,07,12,13,51,23.20
2007,07,12,13,52,23.20
2007,07,12,13,53,23.20
2007,07,12,13,54,23.30
2007,07,12,13,55,23.30
2007,07,12,13,56,23.20
2007,07,12,13,57,23.00
2007,07,12,13,58,22.90
2007,07,12,13,59,22.90
2007,07,12,14,00,22.80
2007,07,12,14,01,22.70
2007,07,12,14,02,22.60
2007,07,12,14,03,22.50
2007,07,12,14,04,22.30
2007,07,12,14,05,22.10
2007,07,12,14,06,21.90
2007,07,12,14,07,21.80
2007,07,12,14,08,21.80
2007,07,12,14,09,21.80
2007,07,12,14,10,21.90
2007,07,12,14,11,22.00
2007,07,12,14,12,22.10
2007,07,12,14,13,22.20
2007,07,12,14,14,22.30
2007,07,12,14,15,22.40
2007,07,12,14,16,22.40
2007,07,12,14,17,22.30
2007,07,12,14,18,22.20
2007,07,12,14,19,22.20
2007,07,12,14,20,22.20
2007,07,12,14,21,22.20
2007,07,12,14,22,22.20
2007,07,12,14,23,22.20
2007,07,12,14,24,22.30
2007,07,12,14,25,22.40
2007,07,12,14,26,22.30
2007,07,12,14,27,22.30
2007,07,12,14,28,22.30
2007,07,12,14,29,22.20
2007,07,12,14,30,22.20
2007,07,12,14,31,22.10
2007,07,12,14,32,22.10
2007,07,12,14,33,22.00
2007,07,12,14,34,21.90
2007,07,12,14,35,21.90
2007,07,12,14,36,21.90
2007,07,12,14,37,22.00
2007,07,12,14,38,22.00
2007,07,12,14,39,22.00
2007,07,12,14,40,22.00
2007,07,12,14,41,22.00
2007,07,12,14,42,22.00
2007,07,12,14,43,22.00
2007,07,12,14,44,22.10
2007,07,12,14,45,22.10
2007,07,12,14,46,22.20
2007,07,12,14,47,22.20
2007,07,12,14,48,22.30
2007,07,12,14,49,22.30
2007,07,12,14,50,22.30
2007,07,12,14,51,22.40
2007,07,12,14,52,22.40
2007,07,12,14,53,22.50
2007,07,12,14,54,22.50
2007,07,12,14,55,22.60
2007,07,12,14,56,22.60
2007,07,12,14,57,22.60
2007,07,12,14,58,22.60
2007,07,12,14,59,22.50
2007,07,12,15,00,22.50
2007,07,12,15,01,22.40
2007,07,12,15,02,22.30
2007,07,12,15,03,22.10
2007,07,12,15,04,22.00
2007,07,12,15,05,21.90
2007,07,12,15,06,21.70
2007,07,12,15,07,21.60
2007,07,12,15,08,21.60
2007,07,12,15,09,21.50
2007,07,12,15,10,21.40
2007,07,12,15,11,21.20
2007,07,12,15,12,21.10
2007,07,12,15,13,21.00
2007,07,12,15,14,20.80
2007,07,12,15,15,20.70
2007,07,12,15,16,20.50
2007,07,12,15,17,20.40
2007,07,12,15,18,20.40
2007,07,12,15,19,20.30
2007,07,12,15,20,20.30
2007,07,12,15,21,20.40
2007,07,12,15,22,20.40
2007,07,12,15,23,20.50
2007,07,12,15,24,20.50
2007,07,12,15,25,20.60
2007,07,12,15,26,20.70
2007,07,12,15,27,20.80
2007,07,12,15,28,20.80
2007,07,12,15,29,20.90
2007,07,12,15,30,20.90
2007,07,12,15,31,21.00
2007,07,12,15,32,21.00
2007,07,12,15,33,21.00
2007,07,12,15,34,21.10
2007,07,12,15,35,21.20
2007,07,12,15,36,21.20
2007,07,12,15,37,21.30
2007,07,12,15,38,21.40
2007,07,12,15,39,21.60
2007,07,12,15,40,21.60
2007,07,12,15,41,21.60
2007,07,12,15,42,21.60
2007,07,12,15,43,21.60
2007,07,12,15,44,21.70
2007,07,12,15,45,21.80
2007,07,12,15,46,21.80
2007,07,12,15,47,21.90
2007,07,12,15,48,22.00
2007,07,12,15,49,22.10
2007,07,12,15,50,22.20
2007,07,12,15,51,22.40
2007,07,12,15,52,22.60
2007,07,12,15,53,22.60
2007,07,12,15,54,22.80
2007,07,12,15,55,22.90
2007,07,12,15,56,22.90
2007,07,12,15,57,23.00
2007,07,12,15,58,23.10
2007,07,12,15,59,23.20
2007,07,12,16,00,23.20
2007,07,12,16,01,23.20
2007,07,12,16,02,23.30
2007,07,12,16,03,23.40
2007,07,12,16,04,23.50
2007,07,12,16,05,23.60
2007,07,12,16,06,23.70
2007,07,12,16,07,23.80
2007,07,12,16,08,23.90
2007,07,12,16,09,24.00
2007,07,12,16,10,24.10
2007,07,12,16,11,24.10
2007,07,12,16,12,24.10
2007,07,12,16,13,24.20
2007,07,12,16,14,24.20
2007,07,12,16,15,24.30
2007,07,12,16,16,24.30
2007,07,12,16,17,24.30
2007,07,12,16,18,24.30
2007,07,12,16,19,24.30
2007,07,12,16,20,24.40
2007,07,12,16,21,24.40
2007,07,12,16,22,24.50
2007,07,12,16,23,24.50
2007,07,12,16,24,24.60
2007,07,12,16,25,24.70
2007,07,12,16,26,24.70
2007,07,12,16,27,24.70
2007,07,12,16,28,24.80
2007,07,12,16,29,24.80
2007,07,12,16,30,24.80
2007,07,12,16,31,24.70
2007,07,12,16,32,24.50
2007,07,12,16,33,24.40
2007,07,12,16,34,24.30
2007,07,12,16,35,24.10
2007,07,12,16,36,24.10
2007,07,12,16,37,24.10
2007,07,12,16,38,23.90
2007,07,12,16,39,23.80
2007,07,12,16,40,23.80
2007,07,12,16,41,23.90
2007,07,12,16,42,23.80
2007,07,12,16,43,23.80
2007,07,12,16,44,23.70
2007,07,12,16,45,23.30
2007,07,12,16,46,23.00
2007,07,12,16,47,22.70
2007,07,12,16,48,22.40
2007,07,12,16,49,22.30
2007,07,12,16,50,22.10
2007,07,12,16,51,22.00
2007,07,12,16,52,22.00
2007,07,12,16,53,22.00
2007,07,12,16,54,22.00
2007,07,12,16,55,22.00
2007,07,12,16,56,21.80
2007,07,12,16,57,21.70
2007,07,12,16,58,21.50
2007,07,12,16,59,21.30
2007,07,12,17,00,21.10
2007,07,12,17,01,21.00
2007,07,12,17,02,21.00
2007,07,12,17,03,20.90
2007,07,12,17,04,20.80
2007,07,12,17,05,20.70
2007,07,12,17,06,20.60
2007,07,12,17,07,20.60
2007,07,12,17,08,20.50
2007,07,12,17,09,20.50
2007,07,12,17,10,20.50
2007,07,12,17,11,20.50
2007,07,12,17,12,20.60
2007,07,12,17,13,20.60
2007,07,12,17,14,20.70
2007,07,12,17,15,20.70
2007,07,12,17,16,20.80
2007,07,12,17,17,20.90
2007,07,12,17,18,21.00
2007,07,12,17,19,21.20